Theta_e
322 321 319 312 313 317 319 323 325 325 323 323 324 324 329 329 336 345 342 341 343 341 341 342 339 339 344 350 347 344 345 349 351 348 350 346 341 343 342 341 340 339 336 335 335 335 335 334 334 334 334 333 333 333 331 331 330 329 328 329 330 330 331 331 332 331 330 330 329 329 329 329 329 329 329 329 329 329 329 329 329 328 327 326 326 327 327 327 327 328 328 327 326 326 326 327 328
322 319 315 310 313 319 322 323 325 323 320 321 323 323 329 336 339 342 343 341 343 341 341 342 341 341 341 343 341 343 345 345 345 345 345 342 343 343 341 341 339 337 335 335 335 334 334 334 335 334 334 333 333 332 330 329 327 328 329 330 330 331 331 331 331 330 330 330 330 329 329 328 327 328 328 329 329 329 328 328 328 328 327 327 327 328 328 328 329 330 330 329 328 327 326 327 328
321 315 310 311 314 321 325 323 324 324 321 320 323 327 330 340 342 341 343 342 343 343 344 344 344 344 343 345 344 346 345 343 342 343 343 342 342 341 341 340 338 336 335 335 334 334 333 333 335 334 334 333 332 330 329 326 326 329 330 330 330 330 331 330 330 330 330 329 329 329 328 327 327 327 327 328 328 328 327 327 327 327 326 326 328 329 328 327 330 330 330 330 328 326 325 327 329
316 311 309 313 318 323 325 323 327 327 323 322 327 336 338 341 341 341 343 343 344 344 343 344 344 344 343 346 344 344 343 343 343 342 342 342 341 341 340 339 337 336 335 335 333 333 333 334 335 335 334 333 331 329 327 326 327 329 330 330 330 330 330 330 330 330 329 329 329 328 327 327 326 326 326 327 327 327 326 326 325 325 326 326 327 329 327 327 330 330 329 328 327 326 326 329 330
312 310 310 315 324 325 324 324 329 326 322 325 333 344 342 339 338 340 343 343 344 343 343 344 345 344 344 344 344 343 343 343 342 342 342 342 341 340 339 338 337 335 336 337 334 333 333 334 335 334 334 332 330 329 328 327 328 329 330 330 330 330 330 330 330 329 328 328 327 326 325 325 324 324 325 326 326 325 326 325 325 325 325 325 326 328 326 326 329 330 330 328 327 327 328 329 329
310 313 315 320 327 328 326 324 326 324 323 328 339 346 340 339 339 339 342 342 343 342 342 343 344 344 344 345 344 343 343 342 342 342 342 341 340 339 339 338 336 335 336 336 334 332 333 334 334 334 333 332 331 329 329 329 330 330 330 330 330 330 330 329 328 328 326 326 325 324 322 322 322 323 324 324 324 324 324 324 324 324 324 324 325 326 325 325 328 330 330 329 327 327 329 329 328
310 316 321 326 329 327 327 325 324 323 326 328 339 347 339 338 340 340 342 340 342 342 342 342 342 344 345 344 343 343 344 343 342 342 341 340 340 339 338 337 336 335 336 335 333 332 333 334 334 333 333 332 331 330 330 330 331 331 330 330 330 329 329 327 326 324 323 323 323 322 322 321 322 322 323 324 324 324 324 323 323 322 322 323 323 324 324 325 327 329 329 328 327 327 329 329 328
312 319 324 330 332 325 326 326 323 324 329 330 334 343 338 336 338 340 342 340 342 342 342 341 339 344 344 344 344 344 344 342 342 341 341 340 339 338 337 336 336 336 336 334 332 333 333 334 333 333 332 331 330 331 331 331 331 330 330 329 329 329 327 325 323 322 321 321 322 321 321 321 321 322 323 323 323 324 324 324 323 323 322 322 323 324 324 324 326 327 327 327 327 328 329 328 327
315 322 324 327 329 324 325 325 323 325 330 334 336 340 336 335 338 341 343 343 342 341 342 341 337 343 344 343 344 343 343 342 342 340 340 339 338 338 337 336 336 336 335 333 332 333 333 332 332 332 332 331 329 330 330 330 331 330 329 329 328 328 326 324 322 322 322 322 322 322 322 322 322 322 323 323 323 324 323 323 323 324 323 323 323 324 324 323 324 326 325 325 328 328 328 327 327
319 323 322 323 324 323 323 323 326 329 329 336 339 337 336 336 339 340 344 344 342 342 342 339 338 342 343 343 343 343 342 342 341 340 340 339 339 338 337 337 336 335 334 332 332 331 332 331 331 331 331 330 329 330 331 331 330 329 328 328 327 327 326 324 323 323 322 323 323 323 323 322 322 322 323 323 323 323 323 323 323 323 323 323 324 324 324 323 323 325 324 325 327 327 327 327 327
319 321 320 321 322 321 322 323 327 333 334 340 340 335 337 337 340 341 342 343 341 341 340 339 341 341 342 342 342 342 342 342 341 340 340 339 339 338 337 337 336 335 334 332 330 330 331 330 330 330 329 328 328 329 330 329 329 328 328 327 327 326 326 325 324 324 324 324 324 325 325 324 324 323 323 323 323 323 322 323 322 322 322 323 324 324 325 324 323 324 324 324 325 325 326 327 327
318 319 320 322 325 322 322 324 330 337 338 344 341 335 337 337 341 342 341 343 340 341 340 339 342 341 341 341 341 342 341 341 340 340 340 339 338 338 337 337 336 335 333 331 330 330 329 329 329 329 327 326 326 326 327 327 327 327 327 327 326 326 326 326 326 326 326 326 326 326 326 326 326 325 325 324 323 324 323 323 322 321 321 321 322 323 324 324 323 323 324 324 324 325 325 326 327
317 319 320 324 328 325 322 325 333 341 339 343 342 336 337 337 339 341 341 341 340 344 343 338 339 340 341 341 341 341 341 341 340 340 339 339 338 337 337 336 335 334 332 330 329 329 328 328 328 327 326 325 325 324 325 326 327 327 327 327 327 327 326 326 325 324 324 325 325 326 326 326 325 325 325 325 325 324 325 324 323 322 321 320 321 322 323 324 324 323 324 323 324 324 323 324 326
316 317 320 325 330 327 325 327 332 338 340 340 339 335 337 337 337 339 339 342 342 343 342 337 337 340 341 342 342 341 341 340 340 339 339 338 337 337 336 335 335 333 331 329 328 328 328 328 327 326 325 325 324 324 326 327 327 327 327 326 326 325 324 324 323 322 323 322 322 322 323 323 323 323 324 325 325 324 325 324 323 323 322 320 319 320 322 323 323 323 323 324 323 324 323 324 326
317 317 319 324 326 325 327 331 333 336 339 339 337 336 339 338 337 339 340 344 343 341 340 337 336 341 343 342 343 342 341 340 340 339 339 338 337 336 336 335 334 333 331 329 329 328 328 327 326 326 325 325 325 327 327 326 326 325 324 323 322 322 322 322 323 324 324 323 323 323 323 322 322 323 322 321 322 323 323 323 322 320 320 319 317 319 321 322 322 323 324 324 324 325 325 326 327
317 317 319 322 323 324 330 334 337 339 338 342 340 338 342 341 339 341 341 342 342 341 341 339 338 340 342 341 341 342 341 340 340 339 338 337 336 336 335 335 334 334 332 331 330 329 327 327 327 326 325 325 326 327 326 324 324 323 323 323 322 322 323 323 324 324 324 324 324 323 323 323 322 323 322 318 319 321 319 318 316 315 314 313 314 318 321 321 322 322 324 325 325 326 326 326 326
317 318 319 321 321 326 336 337 337 339 340 343 340 339 344 343 341 342 342 341 342 342 342 341 340 338 338 339 340 340 340 340 340 338 337 336 335 335 335 335 334 334 333 332 332 330 328 328 328 326 326 326 326 326 325 324 324 324 324 324 325 324 324 324 324 324 324 323 323 322 322 323 322 322 321 316 317 319 316 314 313 312 311 309 312 319 321 320 320 321 323 325 325 327 326 326 326
317 320 319 321 323 327 336 336 334 338 342 343 340 340 343 343 341 341 342 342 342 342 341 341 341 339 338 339 339 340 340 339 339 338 337 335 334 334 334 335 334 333 332 332 332 331 330 329 328 328 328 327 326 326 326 325 326 326 325 325 325 325 325 324 324 324 324 323 322 321 321 322 321 321 320 316 316 319 316 315 317 317 315 311 311 317 320 317 317 318 321 324 326 327 327 326 325
317 321 321 322 329 329 328 332 334 337 341 341 340 340 341 342 340 340 342 342 341 342 341 341 341 340 341 341 341 340 339 339 338 337 337 335 334 334 334 334 334 333 332 331 331 331 330 328 329 328 328 327 327 327 326 326 326 326 326 327 327 325 324 324 324 324 324 323 321 321 320 320 321 320 319 315 317 321 318 317 320 321 320 318 314 315 317 317 317 319 322 325 326 326 326 326 325
318 319 321 328 333 327 326 332 333 336 339 339 340 340 340 340 339 340 341 341 341 342 342 340 341 341 341 341 340 340 339 339 338 337 337 335 334 334 333 334 333 332 331 330 330 330 328 327 329 329 328 327 327 327 326 326 325 324 325 326 326 325 324 324 323 323 323 323 322 321 320 319 320 318 317 316 318 321 319 318 320 321 321 321 319 318 317 317 317 321 324 325 325 326 326 326 325
321 318 323 335 332 325 329 334 334 337 339 339 339 340 341 339 339 339 339 344 342 340 341 340 341 341 341 341 340 340 339 339 338 337 336 335 335 334 334 333 332 332 331 331 331 329 327 327 329 329 328 328 327 327 325 325 324 323 323 324 324 324 324 323 323 322 322 322 321 321 319 319 319 316 316 317 318 320 319 318 319 321 321 321 322 321 319 317 316 321 325 325 325 325 326 326 325
322 322 323 328 327 328 334 334 335 338 338 338 338 340 340 338 339 338 339 348 344 338 339 339 339 341 340 341 340 340 339 338 338 336 336 335 335 335 334 334 333 332 331 331 331 329 327 328 329 328 328 328 327 325 324 324 324 323 323 322 323 323 323 323 322 322 321 321 320 320 319 319 318 316 316 318 318 319 319 318 318 320 321 321 321 321 321 319 318 320 324 325 325 324 326 326 325
325 330 326 324 324 329 334 332 336 338 337 338 338 339 339 339 340 338 339 343 340 335 337 337 338 340 340 340 339 339 338 338 337 336 336 335 335 335 335 334 333 332 331 331 331 329 328 328 328 328 328 328 326 324 323 323 323 322 322 322 322 322 322 322 321 321 321 321 321 320 320 320 319 317 316 316 318 319 318 319 319 319 320 321 321 321 321 321 320 320 321 324 326 326 326 327 325
330 337 329 325 327 329 334 334 335 337 337 336 337 339 338 340 342 340 339 339 337 336 337 338 339 339 339 339 338 338 338 338 337 337 337 336 336 336 335 335 334 332 330 330 330 328 329 328 327 328 329 328 325 323 323 323 323 323 322 322 322 321 321 321 321 320 319 319 320 320 320 319 319 318 316 314 315 318 319 319 320 318 319 321 321 321 320 320 321 320 321 323 326 327 327 326 325
336 339 330 330 332 332 334 334 335 337 337 337 338 340 339 340 341 340 340 339 338 337 337 339 339 339 339 338 339 338 338 337 337 337 337 336 336 336 335 334 334 332 330 330 329 329 329 328 328 328 328 328 325 323 324 323 323 323 322 321 321 321 321 321 320 319 318 317 318 319 319 319 319 318 317 313 312 316 318 319 320 318 319 321 321 321 321 320 320 321 322 323 326 327 326 325 325
336 335 331 332 334 334 335 335 337 337 337 338 339 339 339 338 339 340 340 340 338 337 338 339 339 339 339 339 339 339 338 337 337 337 336 336 336 336 335 334 333 332 330 330 330 330 329 328 328 328 327 327 325 323 324 324 323 322 320 320 321 320 320 320 319 318 318 316 315 314 315 317 318 316 315 313 311 314 318 319 319 317 318 321 321 321 321 321 321 320 322 324 326 327 326 325 326
333 331 331 333 334 333 333 334 337 338 338 337 340 341 339 337 340 341 340 340 339 338 339 338 338 339 339 339 339 339 339 338 337 337 336 335 335 335 335 334 333 331 331 330 330 329 329 328 328 326 324 325 325 324 324 323 322 320 320 320 320 320 319 319 318 317 316 314 312 311 310 312 313 311 312 312 310 311 314 315 318 317 318 321 320 321 320 320 321 321 322 324 325 326 326 325 326
331 330 332 332 333 333 333 334 335 338 340 337 339 342 339 337 341 341 340 340 339 339 339 339 338 338 339 339 339 339 338 338 337 336 336 336 335 335 334 333 332 332 331 330 330 328 328 328 327 326 325 325 324 324 323 322 321 320 320 320 320 319 318 318 317 317 317 316 315 311 307 308 309 309 310 311 309 310 310 310 314 315 317 321 320 320 321 320 321 321 323 324 325 325 325 326 326
330 331 336 335 335 335 334 335 334 337 340 337 338 342 342 341 341 340 340 340 340 339 339 339 338 338 339 339 338 338 338 337 337 336 336 336 336 334 334 333 332 331 331 330 330 328 328 328 327 327 326 325 325 323 322 320 319 319 319 319 319 318 318 317 317 319 318 318 318 312 306 306 308 309 309 310 308 308 309 309 311 312 317 321 320 320 320 320 321 321 322 323 325 325 325 326 326
333 333 340 343 341 336 334 334 335 339 340 336 336 342 346 343 338 339 341 340 340 339 339 339 339 339 339 339 338 338 338 337 337 337 336 336 335 334 333 333 332 331 331 331 330 329 328 328 328 327 326 326 325 324 321 320 319 319 318 318 319 319 318 318 318 319 319 318 318 315 307 304 307 309 309 308 307 306 307 308 309 310 316 320 320 320 320 320 320 321 322 322 323 324 324 323 322
338 337 339 342 341 339 337 333 334 340 338 334 339 345 346 342 337 339 340 339 340 338 339 339 338 339 338 338 338 338 337 336 336 335 334 334 334 334 333 332 332 331 331 331 330 329 329 328 328 327 326 326 324 322 321 320 320 318 318 318 319 319 318 318 319 319 320 318 319 316 308 303 305 307 308 307 307 306 306 307 308 309 316 320 319 320 320 320 320 320 321 321 322 322 321 319 319
340 341 340 339 340 343 341 334 332 337 337 334 340 343 343 342 337 338 340 339 339 338 338 338 338 338 338 338 337 337 337 336 336 335 335 335 335 334 333 331 331 331 331 331 330 329 329 329 328 327 325 325 323 322 320 320 319 318 318 318 319 319 318 318 319 320 319 318 319 314 306 303 305 306 306 306 306 306 305 306 307 309 315 319 318 318 319 319 319 319 320 321 321 321 320 319 318
339 339 341 339 341 343 341 337 332 334 335 334 341 345 344 343 338 337 339 339 339 338 338 338 338 338 337 337 337 336 337 336 336 336 336 336 334 334 333 332 332 332 331 331 330 329 329 329 328 327 326 324 322 321 320 319 318 317 319 318 319 318 318 319 319 320 319 319 318 312 303 302 303 304 305 305 305 305 305 306 307 309 314 317 318 318 318 318 319 319 319 320 321 321 321 319 318
340 339 340 339 340 340 339 342 337 332 334 336 343 348 346 344 339 337 339 338 338 338 338 337 337 337 337 337 336 336 336 336 336 335 336 336 334 333 333 333 332 332 331 331 330 329 329 329 328 327 326 324 321 320 319 318 317 318 319 318 318 319 319 320 320 320 319 319 315 307 302 301 301 303 303 303 304 304 305 305 306 308 312 316 318 318 318 318 318 318 319 319 320 321 321 320 319
342 340 341 340 340 338 337 342 339 333 335 337 340 345 345 343 339 338 338 338 338 337 337 337 337 336 336 336 336 336 336 336 336 335 336 335 334 333 333 332 331 331 331 330 329 329 328 328 327 326 325 323 320 319 319 317 318 319 318 318 319 320 319 320 320 319 319 318 312 305 303 302 300 301 302 302 303 304 304 305 306 308 309 313 318 318 318 318 318 318 318 319 320 320 320 320 320
340 337 339 341 341 339 337 338 337 334 336 338 337 340 344 342 339 338 338 338 337 337 337 336 336 336 335 336 336 336 336 336 336 336 336 335 334 334 333 331 331 330 330 330 329 329 328 327 326 325 322 320 319 319 318 317 318 318 318 319 320 320 320 320 320 319 319 317 311 308 307 302 301 301 301 302 303 303 303 304 305 307 308 311 317 319 317 317 317 318 318 318 318 317 319 320 319
337 337 339 339 338 340 339 337 336 334 337 341 337 337 342 341 339 338 337 338 336 335 336 335 336 336 335 335 335 336 336 336 336 335 336 334 334 334 332 331 330 330 329 329 329 328 327 326 325 323 320 319 319 319 319 318 318 317 319 320 320 320 320 320 319 319 318 314 310 310 309 303 301 301 301 301 302 303 302 303 304 305 306 309 315 319 317 317 317 316 317 317 315 313 315 318 316
336 339 341 339 337 338 338 337 336 334 337 343 339 337 340 339 338 337 336 337 337 334 334 335 336 336 335 335 336 336 335 336 336 336 335 335 335 333 332 331 331 330 330 329 329 327 327 326 324 323 320 318 319 318 319 318 317 317 320 321 320 320 320 320 319 318 317 313 309 311 310 305 302 301 301 301 302 302 302 302 303 304 305 307 314 318 317 317 317 316 316 315 314 312 313 314 313
335 338 340 341 339 338 338 337 335 334 339 343 340 339 343 340 336 336 335 337 337 335 335 335 336 335 335 335 335 336 335 336 336 335 335 335 335 333 331 331 330 330 329 329 328 327 326 325 323 322 319 318 318 318 319 317 317 318 320 320 320 320 320 320 318 316 317 314 310 309 308 306 303 301 301 301 301 302 302 302 302 303 303 305 312 317 317 317 317 316 316 315 315 314 313 313 313
337 340 341 341 338 335 340 340 335 335 338 340 339 341 345 344 338 335 335 335 336 336 336 335 336 336 335 335 335 336 335 336 336 335 335 335 335 332 331 331 330 329 329 328 327 326 326 324 323 321 318 317 317 318 318 317 317 320 320 320 320 320 320 319 318 318 319 317 313 309 306 305 303 302 301 301 301 301 301 302 302 302 302 303 308 314 316 316 316 316 315 315 314 314 314 314 313
339 339 341 342 337 334 339 341 338 338 338 336 336 339 344 343 338 336 335 334 335 335 335 335 334 335 335 334 334 336 335 336 336 335 335 335 334 331 331 331 330 329 328 328 327 326 326 324 323 321 318 316 317 318 318 317 318 320 320 320 320 320 320 319 319 319 318 318 315 309 305 303 302 301 301 301 301 301 301 302 302 302 302 302 304 308 311 313 315 315 314 314 314 314 313 313 312
340 339 340 339 336 335 338 339 340 341 341 337 333 336 344 344 338 336 335 334 334 334 333 333 333 333 333 334 334 335 335 335 336 335 335 335 333 331 331 330 329 329 328 327 327 326 325 324 323 321 317 315 317 318 317 317 319 319 320 320 320 321 320 319 319 318 318 319 315 309 305 302 302 301 301 302 301 301 301 301 302 302 302 302 302 304 306 309 311 312 312 312 312 312 312 312 312
340 338 336 333 333 336 339 338 340 340 340 339 335 335 342 345 341 337 334 334 334 333 333 333 332 332 332 333 334 335 335 336 335 335 335 334 333 331 331 330 329 329 328 327 326 325 325 324 323 321 316 315 317 318 318 318 319 320 321 320 320 320 320 319 319 319 319 318 315 311 306 302 301 302 301 301 301 301 301 302 301 301 302 302 302 303 304 306 308 309 309 309 310 310 310 310 310
338 336 332 332 333 336 338 338 341 341 338 338 337 335 339 342 341 337 334 333 334 333 333 332 331 332 332 333 334 335 335 336 335 335 335 333 333 332 331 330 329 329 328 327 326 325 325 323 323 322 316 315 317 318 318 319 319 320 320 320 320 321 320 319 319 320 320 319 316 313 309 304 302 301 301 302 301 301 301 301 302 302 301 301 301 302 303 304 305 306 307 307 308 310 309 307 307
338 335 332 333 333 335 337 338 341 339 336 340 340 336 338 342 341 337 333 334 334 333 333 332 330 330 332 333 334 334 334 335 335 334 334 333 333 332 331 330 329 328 327 326 326 325 324 324 323 321 316 315 318 318 319 320 319 319 319 320 320 320 320 319 319 320 320 319 317 315 312 310 305 302 302 302 301 302 302 302 302 302 301 301 301 302 302 302 303 304 306 306 307 308 308 305 304
334 332 332 334 334 336 338 339 340 338 338 342 340 335 337 342 343 337 334 334 334 333 332 331 330 330 332 333 334 334 334 335 335 334 334 333 333 332 332 330 328 328 327 326 326 325 325 324 323 321 317 316 318 318 318 320 319 318 318 319 320 320 320 320 320 320 320 320 318 316 315 315 310 306 302 301 302 302 302 302 302 302 302 302 302 301 302 302 301 302 303 303 304 304 305 304 303
331 332 334 334 335 337 338 339 339 339 341 340 334 333 336 340 345 340 334 335 334 332 332 331 330 329 331 332 334 334 334 335 334 334 334 334 333 333 331 330 328 328 327 326 326 325 325 324 323 322 318 316 318 318 319 319 318 317 318 319 320 320 320 321 321 320 320 320 318 317 317 317 315 311 307 303 302 302 302 302 302 302 302 302 302 301 302 302 301 301 301 301 301 302 302 302 302
331 333 333 335 338 339 339 338 337 339 343 339 333 333 334 337 345 343 335 335 334 332 331 331 330 329 330 331 333 334 334 334 334 334 334 333 333 332 331 329 328 328 327 326 326 325 325 325 323 323 320 316 316 318 318 319 318 317 318 319 319 320 320 321 321 320 320 319 317 317 318 318 317 315 312 307 304 302 302 301 302 302 302 302 302 302 302 302 302 301 301 301 301 301 301 301 301
331 333 334 338 340 340 341 339 338 340 341 338 333 332 335 337 339 338 336 335 335 332 329 329 329 328 330 331 332 334 334 334 334 334 334 333 332 332 331 329 328 328 327 326 326 326 325 324 323 323 321 318 316 317 318 318 318 317 317 319 319 319 320 321 321 320 319 318 317 318 318 318 318 317 316 312 307 305 303 301 301 302 302 302 302 302 302 302 302 302 302 302 302 301 302 301 302
331 334 338 342 343 340 339 337 336 337 336 336 333 332 338 339 334 336 338 333 332 330 328 328 329 329 329 330 332 334 333 334 334 334 334 333 333 332 331 330 328 328 327 327 327 326 325 325 324 323 322 319 317 317 318 318 317 317 317 318 318 320 321 321 321 320 319 318 317 318 319 318 319 319 318 316 312 308 306 303 302 302 302 302 302 302 303 302 302 302 302 302 302 302 302 302 302
333 337 339 342 343 341 339 339 339 338 336 336 331 330 338 337 331 337 336 330 330 330 329 329 329 330 329 330 332 333 334 334 334 334 334 334 333 332 331 330 330 328 328 327 327 326 325 325 325 324 323 321 318 317 317 317 317 317 317 318 318 320 321 321 321 320 318 318 318 319 319 319 320 320 319 318 316 313 310 307 304 302 302 302 303 302 303 303 303 303 303 303 303 303 303 303 303
335 334 335 336 337 342 343 339 340 342 339 336 332 334 341 336 332 336 331 328 330 329 330 330 328 329 328 330 332 332 333 334 334 334 334 334 334 333 332 331 330 329 328 328 327 327 326 325 325 325 323 322 320 318 317 317 317 317 317 317 317 319 320 321 321 320 318 318 319 320 320 320 321 321 320 320 320 318 315 311 308 305 303 302 303 303 303 303 303 303 303 303 304 304 304 304 305
336 331 333 335 332 340 341 332 336 339 334 334 333 335 342 338 333 336 333 331 332 330 330 329 328 329 328 329 331 332 333 333 334 334 334 334 334 333 332 332 331 330 329 328 328 327 327 326 326 325 324 322 321 319 318 317 317 317 316 316 318 319 319 321 321 319 319 319 319 320 321 321 321 321 321 320 320 320 319 316 312 309 306 304 302 303 303 303 303 304 304 304 304 304 305 305 305
337 336 335 334 330 338 341 333 338 340 332 334 335 331 336 335 332 337 338 334 332 332 333 330 328 328 328 329 330 331 332 333 333 334 333 334 334 333 333 333 332 331 330 329 328 328 328 327 327 325 324 323 322 321 320 318 318 318 316 317 318 319 319 321 321 320 319 319 319 320 321 321 321 321 321 320 320 321 321 320 317 314 311 307 304 303 303 303 303 304 304 304 304 304 305 305 305
333 336 333 333 335 337 337 332 337 337 331 334 338 333 332 332 333 339 339 337 337 336 335 334 331 328 328 329 329 330 332 332 333 333 333 334 333 334 333 333 333 332 331 330 329 328 328 328 327 326 325 325 324 322 321 319 319 318 317 317 318 319 320 321 321 320 320 320 320 320 320 321 321 321 321 321 321 320 321 321 320 318 315 311 308 306 304 303 303 303 304 304 304 304 304 305 305
329 332 330 334 342 339 333 331 334 336 332 332 334 334 333 334 339 342 341 346 348 341 338 338 334 328 328 328 329 330 331 331 332 333 333 333 333 333 333 332 333 332 331 331 330 329 328 328 327 326 326 327 325 323 322 320 319 318 318 317 317 318 319 320 321 320 320 320 320 320 321 321 321 321 322 322 321 321 321 321 321 320 318 315 312 310 308 305 303 303 303 304 304 304 304 304 305
332 332 329 332 338 336 331 331 333 335 336 335 333 331 336 342 341 340 342 345 344 340 341 341 333 328 328 329 328 330 330 330 332 332 332 333 332 333 332 332 332 332 331 331 330 329 329 328 327 327 327 327 326 324 322 321 320 318 318 318 318 318 318 319 320 320 320 320 320 320 321 322 322 322 322 322 321 321 321 321 321 321 320 319 316 312 310 309 306 305 304 304 303 304 304 304 304
336 335 335 335 336 333 330 331 335 336 334 336 335 329 335 342 337 336 343 343 336 333 337 337 331 328 329 329 329 329 329 329 331 331 331 332 332 332 332 332 332 332 331 331 331 330 329 329 329 328 328 327 326 325 323 322 321 319 318 318 318 319 318 318 319 320 320 320 320 320 320 321 322 322 322 321 321 321 321 321 321 321 321 321 318 314 312 311 310 308 307 306 305 304 304 304 304
Wind_Speed
12 8 6 6 7 7 6 5 2 1 1 1 3 2 5 5 5 3 5 4 4 4 10 17 18 19 14 13 17 16 11 3 3 3 4 11 18 17 14 13 12 13 13 12 12 12 11 10 9 8 7 7 6 6 6 6 5 6 7 8 8 9 9 10 10 11 12 13 14 14 13 13 13 13 13 13 14 14 14 14 14 14 13 14 14 13 14 14 15 14 14 13 11 10 10 10 11
9 6 8 8 9 8 5 5 2 0 2 3 4 4 5 3 5 6 6 6 7 10 25 32 29 28 24 22 19 16 14 6 5 11 15 19 20 16 14 13 12 13 12 11 11 11 10 10 9 8 7 6 6 6 6 6 6 8 9 9 10 10 10 10 10 11 12 13 13 14 13 13 13 13 14 14 14 14 14 14 14 15 14 14 14 14 15 15 15 14 14 13 12 12 11 11 11
9 8 11 10 10 8 2 2 2 2 3 4 4 4 5 3 6 7 10 16 19 22 29 26 21 17 15 13 11 9 7 8 15 21 21 20 20 18 15 13 13 12 11 11 11 11 10 10 9 8 7 6 7 6 7 7 8 9 10 10 10 10 10 11 11 12 13 13 13 13 14 14 14 14 14 14 15 15 15 15 15 15 15 16 15 15 15 15 14 14 13 13 13 13 12 12 12
10 10 13 13 9 5 1 1 3 4 3 5 4 4 5 6 7 10 17 26 25 24 21 14 12 10 12 12 9 11 10 12 19 22 22 19 19 19 16 14 14 13 12 12 11 11 10 10 9 8 8 7 7 7 8 9 9 10 11 11 11 11 11 11 12 12 13 13 13 14 14 14 14 14 15 15 15 15 15 15 15 15 16 16 16 15 16 15 14 14 13 13 13 13 13 12 12
12 13 15 15 7 2 2 2 2 3 4 5 3 4 5 9 11 13 18 24 20 20 19 12 8 10 18 13 6 9 13 16 18 21 22 20 18 18 17 15 14 14 13 12 12 11 10 10 10 9 9 8 8 9 10 10 11 11 11 11 11 12 12 12 12 12 13 13 13 14 14 14 14 15 15 15 15 15 15 15 16 16 16 16 16 16 16 15 14 14 14 14 14 14 14 13 14
15 14 15 13 4 2 2 2 3 4 5 4 3 3 6 9 13 15 17 19 16 18 20 16 14 14 15 11 10 13 16 16 18 20 21 21 18 17 15 14 14 14 13 12 12 11 11 11 11 10 9 9 9 10 11 11 12 12 12 12 12 12 12 12 12 12 13 13 13 14 14 15 15 15 15 15 16 16 15 15 16 16 17 17 16 16 16 16 15 14 14 15 15 15 15 14 14
17 15 12 8 4 3 2 4 5 4 4 3 3 3 6 9 16 19 15 15 14 15 19 22 25 20 10 8 12 13 12 13 19 20 20 21 19 16 15 14 13 13 14 13 13 12 11 11 11 11 10 10 10 11 11 12 12 12 12 11 12 12 12 12 12 12 12 13 13 13 14 14 14 15 15 15 15 15 15 15 15 15 16 17 16 16 16 16 15 14 15 15 15 16 16 15 15
17 14 10 5 2 2 2 4 5 2 3 5 5 5 9 15 19 16 10 10 9 11 19 23 25 17 5 7 9 8 11 13 18 19 20 20 18 17 15 14 13 14 14 13 13 13 12 12 12 11 11 11 11 11 11 12 12 12 12 12 12 12 12 12 12 12 12 13 13 13 12 13 13 13 13 14 14 14 14 14 13 14 15 16 16 16 16 16 14 14 15 15 16 16 15 15 15
18 13 7 4 1 2 3 3 3 2 5 4 5 7 13 19 20 17 10 10 11 13 15 16 16 13 8 11 12 11 14 14 18 20 20 19 18 17 15 14 13 14 14 13 14 13 13 12 12 12 11 11 11 12 12 12 12 12 12 12 12 12 12 11 11 12 12 12 12 12 11 11 11 12 12 12 12 12 13 12 12 13 13 14 14 15 15 15 14 14 15 15 16 16 15 15 14
17 12 5 2 3 3 5 2 1 3 5 3 5 9 13 19 23 21 15 11 15 13 10 13 15 18 16 13 13 14 16 18 21 21 19 18 17 16 14 13 13 14 14 13 13 13 13 12 12 12 11 12 11 12 12 12 12 12 12 11 12 11 11 11 11 11 11 11 11 11 10 10 10 10 10 10 10 10 10 10 11 11 11 12 12 13 13 14 13 13 15 15 16 16 15 16 14
10 8 3 1 3 4 6 2 2 4 3 2 4 8 10 20 22 17 17 14 16 18 16 18 17 22 19 10 12 16 18 19 20 21 20 18 16 15 14 13 13 13 13 13 13 13 13 13 13 12 12 12 12 12 12 12 12 12 11 11 11 11 11 10 10 10 10 10 9 9 9 9 9 8 8 8 8 9 9 9 9 9 10 10 10 12 12 12 12 12 14 14 15 16 15 15 14
6 4 4 1 4 4 4 3 4 4 2 2 3 7 9 19 19 12 15 13 16 19 14 14 17 22 14 6 14 19 20 19 19 20 19 18 17 16 14 14 14 12 12 12 13 13 14 14 13 13 13 12 12 12 12 12 11 11 11 11 11 11 11 10 10 10 9 9 8 8 8 8 8 7 7 6 6 7 8 8 8 8 8 8 9 10 11 11 11 11 13 13 14 15 14 13 12
8 4 5 2 4 4 4 3 4 3 2 3 4 9 13 16 15 15 17 14 14 10 7 18 26 21 10 8 19 21 21 20 19 18 18 18 18 17 15 15 14 13 12 13 13 14 14 14 14 13 13 13 13 12 11 11 11 11 11 10 10 10 10 10 9 9 8 8 7 7 7 7 7 7 6 6 6 6 7 7 7 7 7 7 8 9 10 11 10 10 12 12 12 13 13 12 10
11 6 5 2 3 2 4 2 3 3 3 5 10 16 15 10 15 22 23 13 4 8 16 27 29 18 12 13 17 23 22 21 20 18 18 18 18 17 15 14 14 14 13 13 13 13 13 13 14 14 13 12 12 12 12 11 11 11 10 10 10 10 10 9 9 9 8 7 6 6 5 5 6 7 6 5 5 5 6 7 7 7 7 7 7 8 9 10 10 9 10 11 11 12 12 11 10
15 7 4 2 2 0 2 2 3 4 5 4 10 18 13 9 18 22 22 15 8 19 25 24 21 10 15 16 16 28 25 22 22 19 19 18 19 17 16 15 14 15 14 14 13 13 13 13 13 13 12 11 11 12 12 13 12 11 11 10 10 10 9 8 8 9 8 7 6 6 6 5 5 6 6 4 4 5 6 7 7 7 6 6 7 8 9 11 11 9 10 11 11 12 12 11 10
18 7 2 3 2 1 0 3 4 4 3 2 10 20 15 9 18 15 12 22 19 20 17 15 10 4 22 23 22 32 26 24 23 20 21 20 20 18 17 16 15 16 15 14 14 14 13 13 13 12 11 11 12 13 14 14 13 12 11 10 9 8 8 7 7 7 7 7 7 7 8 7 6 5 6 4 3 5 8 9 9 9 7 7 7 9 10 11 11 10 10 10 11 12 13 12 10
17 7 1 4 2 2 2 4 5 6 4 5 10 19 15 6 15 17 17 30 27 16 11 9 6 10 25 21 26 34 26 26 25 22 22 21 21 20 19 17 17 16 15 15 14 15 14 13 13 12 12 13 14 15 15 14 13 13 12 11 10 8 8 7 6 6 7 8 9 8 7 6 5 6 5 3 4 6 9 12 13 13 11 9 8 10 11 11 11 10 11 12 11 12 13 12 10
11 4 3 4 1 3 5 6 5 8 9 7 9 17 20 9 13 22 20 22 25 19 14 13 10 17 21 19 30 32 27 28 25 25 23 22 23 21 20 18 17 17 16 15 13 14 13 13 13 13 14 15 16 16 15 14 14 13 12 11 9 8 8 6 5 5 5 7 8 6 4 4 4 5 5 1 6 8 10 14 15 15 14 12 11 11 10 9 10 9 12 15 14 12 12 12 10
7 2 4 4 3 5 7 9 9 10 12 10 10 16 21 14 13 19 13 10 20 20 14 19 20 20 21 26 32 28 28 29 25 26 24 23 23 22 21 19 18 17 17 16 15 14 13 14 14 14 16 16 17 16 14 14 13 13 11 10 9 8 7 5 4 4 3 4 5 3 2 2 3 4 4 1 7 8 10 14 15 14 13 12 12 12 10 8 9 10 14 18 17 14 12 11 10
6 3 3 4 5 6 12 12 15 16 19 14 9 15 18 14 12 14 12 9 13 14 13 18 23 26 29 31 30 29 29 27 26 25 23 23 21 20 21 19 18 17 16 16 15 15 14 14 14 15 17 17 16 14 13 12 12 11 10 9 8 7 6 6 5 4 3 3 3 1 1 1 3 3 1 4 7 7 9 13 15 14 13 12 11 10 10 9 9 11 17 20 18 16 14 11 10
4 4 4 5 4 6 10 7 15 18 22 21 14 16 14 11 14 18 18 10 5 9 18 21 26 32 33 31 30 30 29 27 27 24 22 22 20 19 18 17 16 15 16 15 15 15 15 15 16 17 17 16 14 12 12 10 10 9 8 7 7 7 7 6 4 3 3 3 4 2 3 3 3 2 6 7 6 7 8 11 14 15 14 12 11 9 9 10 10 11 16 19 19 18 16 11 10
2 4 4 4 5 4 4 6 16 16 20 22 16 13 12 13 15 18 16 7 6 12 20 25 30 35 34 33 31 29 29 28 26 23 23 21 20 19 16 17 16 16 16 15 16 16 16 17 17 17 15 13 13 12 12 10 9 7 5 5 7 8 8 6 4 4 4 4 4 3 4 2 1 3 7 8 7 7 8 9 13 14 13 12 11 10 10 10 10 11 13 16 19 20 16 13 10
3 3 5 12 15 6 10 13 19 21 20 14 11 13 17 19 12 10 10 5 13 19 22 25 29 34 34 33 31 30 29 27 25 23 22 21 20 19 17 17 17 16 17 16 17 17 18 19 18 16 13 12 12 13 12 10 8 6 5 5 6 7 7 5 4 4 4 4 4 4 5 4 2 2 4 9 10 8 9 9 10 13 13 12 12 11 10 10 10 12 13 15 18 19 16 14 10
1 2 7 17 20 4 17 19 23 25 21 14 18 20 17 17 9 8 10 8 17 21 23 26 29 32 32 31 31 29 28 27 24 22 21 21 19 18 17 17 16 16 17 18 19 19 19 20 18 15 12 10 12 14 12 10 7 5 5 4 5 5 5 5 5 4 6 6 7 7 7 7 6 6 5 6 11 10 10 10 9 12 13 13 13 12 11 9 9 12 15 16 17 17 14 12 10
2 2 6 12 14 3 15 19 26 25 22 23 24 19 14 20 16 10 10 14 21 24 25 28 31 31 31 30 29 27 27 26 24 23 21 20 18 17 17 17 17 17 18 19 20 20 20 19 16 13 12 11 13 13 11 9 8 7 7 7 6 5 5 5 4 5 6 6 7 9 10 9 8 9 8 5 10 12 12 12 10 12 13 13 14 13 11 9 8 10 15 18 18 17 13 10 11
2 3 6 6 9 10 11 14 24 25 23 28 22 13 17 24 19 10 9 21 24 25 28 29 31 30 29 28 27 27 26 26 25 24 23 21 20 18 17 17 17 17 18 20 20 21 20 18 15 12 11 12 15 13 10 9 8 7 7 8 7 5 3 3 4 5 6 5 4 7 11 12 11 11 9 7 8 12 15 14 11 12 15 14 15 15 12 10 10 10 13 17 19 17 14 12 14
4 11 12 8 12 20 18 11 12 23 20 26 21 8 12 13 9 5 10 24 26 26 28 28 29 28 29 27 27 27 26 27 26 25 24 22 22 20 18 18 18 18 19 21 21 22 21 17 15 13 11 12 15 13 10 9 7 6 7 8 7 4 2 3 4 5 6 4 4 2 6 10 12 11 9 8 7 11 14 14 13 12 16 16 16 16 13 10 11 11 12 17 18 17 17 16 16
7 13 13 12 13 21 22 17 14 12 11 23 26 8 5 6 5 11 19 26 26 28 29 27 27 26 27 27 26 27 26 26 26 25 25 24 23 21 19 19 19 20 20 22 22 23 21 16 14 13 13 13 12 10 8 7 7 7 8 8 6 4 2 1 2 4 4 4 5 5 1 6 9 9 8 7 8 10 10 10 12 14 16 16 16 16 14 12 12 12 12 16 19 19 19 18 16
9 12 9 7 7 11 15 8 9 7 6 21 24 7 4 4 5 19 26 28 26 28 28 26 26 26 26 26 26 26 26 26 25 25 24 23 23 20 19 18 19 20 21 22 23 24 21 16 15 14 14 14 11 9 6 6 7 7 8 8 5 4 3 1 2 3 4 5 7 7 4 3 8 8 7 6 7 9 8 7 10 14 18 17 16 16 15 13 13 13 14 16 19 20 19 17 15
7 8 6 3 5 4 4 4 3 6 10 16 14 3 4 2 8 23 27 28 28 26 25 25 25 25 26 26 25 25 25 26 25 23 22 23 22 19 18 18 19 21 22 22 23 23 20 18 16 15 15 14 13 11 7 6 8 8 9 9 6 5 4 1 1 1 3 6 9 10 7 2 8 8 6 5 6 8 8 8 9 14 19 18 16 17 16 15 13 13 15 17 20 20 18 17 15
4 5 4 3 2 1 5 5 4 3 9 10 7 2 4 1 10 23 27 28 28 24 23 24 24 24 25 25 24 24 24 24 24 22 22 23 22 20 18 18 20 21 22 22 22 22 21 19 18 16 14 13 12 9 7 8 9 8 10 10 8 6 4 2 1 1 4 7 10 12 7 1 6 7 6 4 5 7 8 9 10 15 20 19 17 17 17 16 14 13 14 16 19 19 17 15 14
4 3 3 2 0 1 7 9 8 3 3 3 6 2 3 2 10 20 26 27 26 23 22 22 24 24 25 25 24 23 22 22 22 21 22 23 22 20 18 20 22 23 23 23 23 22 21 19 18 16 13 11 9 8 9 11 10 9 10 9 8 6 5 3 2 2 5 7 10 11 5 2 4 6 5 2 4 7 9 10 12 16 20 19 17 17 17 17 15 13 13 14 16 18 15 15 14
4 3 2 2 1 1 4 8 9 6 3 1 4 3 2 2 10 18 23 26 25 22 21 23 24 24 26 26 24 23 22 22 22 21 22 22 22 21 20 21 23 23 22 22 23 22 20 19 18 16 13 10 9 10 12 11 11 12 11 10 8 5 4 3 2 1 4 7 10 9 3 1 3 5 4 2 4 7 9 11 14 16 19 20 18 16 16 16 15 14 14 12 14 16 15 15 16
3 3 2 2 1 1 1 3 7 5 3 4 3 4 3 4 11 18 20 24 25 22 22 23 24 25 25 26 25 24 24 24 23 22 22 21 21 21 21 22 23 22 22 22 22 21 20 19 17 16 14 11 11 12 13 11 13 14 11 10 9 6 6 5 2 1 4 7 7 5 2 2 2 3 3 2 4 7 8 10 13 15 18 20 19 16 15 15 15 15 15 14 12 14 15 14 15
2 2 1 1 2 1 2 2 4 4 4 5 3 3 3 5 10 15 20 24 23 21 22 23 25 26 25 26 26 26 26 25 24 23 22 21 22 22 23 23 23 23 23 22 21 20 19 18 16 15 12 11 13 15 15 14 15 14 11 11 10 9 8 6 3 3 5 6 5 3 2 3 0 2 2 3 4 6 7 9 12 14 16 19 19 16 15 15 15 15 16 16 15 14 14 14 14
6 4 2 2 1 3 2 1 2 2 2 4 3 3 4 8 9 12 19 23 21 20 21 21 23 25 25 26 27 28 27 26 24 23 22 22 23 23 24 24 23 23 22 22 21 20 19 17 15 13 10 11 15 17 17 17 16 14 13 12 12 10 8 7 5 5 6 6 5 4 2 3 1 1 1 2 4 5 6 8 10 12 13 17 20 18 16 15 15 15 16 17 16 16 15 14 14
6 4 2 1 0 2 1 4 1 3 3 5 2 2 5 10 10 12 18 20 17 16 18 20 23 25 25 26 27 29 28 26 24 23 22 22 23 25 26 25 24 24 23 22 22 21 19 16 14 12 9 14 18 18 20 19 15 16 15 12 12 11 8 7 4 3 5 6 6 5 3 1 2 1 1 2 3 4 6 8 9 11 11 15 21 21 17 16 15 15 14 14 14 16 17 16 14
7 4 3 1 1 2 2 3 3 3 3 3 2 2 6 9 9 11 15 15 14 16 18 20 23 25 26 27 28 29 27 26 25 24 24 23 24 28 28 27 27 26 25 24 23 21 19 15 13 10 10 18 20 17 20 18 15 18 17 13 13 11 8 6 3 2 2 5 5 4 3 1 2 1 2 2 3 4 5 7 9 10 10 15 22 23 19 18 16 15 14 13 12 14 16 16 14
6 4 4 0 2 2 1 2 3 3 1 3 4 1 4 5 6 9 13 15 16 21 23 24 27 26 26 28 29 29 26 27 28 26 26 25 26 29 29 28 27 26 25 25 23 21 19 15 13 10 11 21 21 17 18 16 16 20 16 13 13 11 9 6 4 2 0 3 4 4 3 1 2 1 2 3 3 4 5 6 8 10 11 15 22 24 22 20 18 16 15 14 13 14 14 15 13
3 3 4 1 1 1 1 1 2 1 2 1 2 1 3 3 3 7 14 18 17 20 24 27 30 29 29 30 31 31 29 30 31 28 28 27 27 31 31 29 28 27 26 26 24 22 19 16 14 10 12 21 22 18 17 15 18 20 15 13 13 11 10 7 4 3 1 2 4 4 4 2 1 2 3 4 4 4 5 6 7 9 11 14 19 22 23 22 20 19 18 16 16 16 15 15 14
1 3 3 1 1 1 2 1 2 1 1 0 2 3 4 3 4 5 10 13 13 16 20 23 28 30 30 30 32 34 33 34 33 31 31 29 30 33 32 29 28 28 27 26 24 22 19 16 14 10 11 19 21 19 17 16 19 20 16 15 13 12 10 8 6 4 1 2 4 3 3 2 1 2 3 4 4 4 5 6 6 7 9 12 16 19 21 21 21 21 20 18 18 18 17 17 16
2 2 3 3 2 2 2 1 2 3 2 1 1 1 4 4 4 6 6 7 9 12 15 18 23 26 27 29 33 35 34 34 33 32 32 31 32 34 32 30 29 29 28 26 24 22 19 17 15 9 10 18 20 18 18 18 20 19 17 16 15 14 12 10 7 4 1 1 3 3 2 1 1 3 4 4 4 4 5 6 6 6 8 10 14 16 18 19 20 20 19 19 18 17 17 18 19
2 2 5 8 6 3 2 3 2 2 1 3 1 3 3 5 3 5 8 8 10 10 10 15 20 22 25 30 33 34 34 34 32 32 32 33 34 35 34 32 31 30 28 26 23 22 20 17 15 10 11 20 22 19 19 20 20 18 17 17 15 15 13 10 8 5 2 1 2 3 2 0 1 2 4 4 4 4 5 6 7 7 7 8 11 13 15 16 17 17 17 17 16 16 16 17 19
2 4 6 11 9 5 4 4 2 1 1 3 1 3 1 4 5 5 9 10 10 9 8 12 17 21 25 30 33 35 35 34 34 33 33 34 35 36 36 34 33 31 28 26 25 24 21 18 16 11 11 21 24 21 20 21 21 18 17 17 15 14 13 11 9 6 5 4 2 1 2 2 1 1 3 4 5 6 6 7 8 8 8 8 8 9 11 13 14 15 14 14 13 13 15 15 17
3 4 7 9 7 5 4 4 2 1 2 3 1 4 0 4 5 2 8 10 10 12 11 11 15 20 25 29 33 35 35 35 34 34 35 35 36 36 35 34 33 31 28 27 26 24 21 18 16 11 12 21 24 22 20 21 23 20 17 18 17 15 13 11 11 8 7 7 5 3 0 3 2 0 3 4 5 6 7 7 7 8 8 8 8 8 8 9 11 12 13 12 10 11 12 11 13
3 7 8 5 5 5 3 3 2 3 3 3 4 5 2 4 5 1 5 8 10 11 10 10 15 22 26 29 33 34 35 35 34 34 35 36 36 34 34 33 33 32 30 28 26 24 22 19 18 14 13 21 24 21 20 21 24 21 19 19 18 16 15 13 13 11 10 9 6 5 2 2 3 2 1 3 4 5 6 7 7 8 8 8 8 8 8 8 9 10 11 10 9 9 9 9 10
11 9 8 6 4 3 2 2 2 4 2 5 6 9 5 2 4 4 5 6 9 10 7 9 15 20 25 29 33 34 34 35 35 35 35 35 36 34 33 32 32 33 31 29 27 25 23 22 20 17 14 20 24 21 20 22 23 21 20 20 19 18 16 14 14 14 12 10 7 6 4 1 1 2 1 2 3 4 5 6 6 7 8 7 8 7 7 7 8 9 9 9 9 8 8 8 8
12 6 4 5 2 2 2 3 3 3 2 6 4 9 7 1 5 5 5 5 6 10 10 11 13 18 23 28 33 35 34 35 35 36 36 36 36 36 34 33 32 33 33 31 29 26 25 24 23 19 16 20 25 24 22 23 24 22 21 21 20 19 17 16 16 15 13 10 7 7 6 4 2 2 1 2 2 3 3 4 4 5 6 6 6 7 7 7 7 8 9 8 8 8 7 7 7
6 5 4 3 3 2 2 2 1 1 4 5 3 8 5 5 8 8 7 7 6 10 13 15 17 20 23 26 32 35 34 35 36 36 37 37 38 38 36 35 33 33 33 33 30 28 27 26 24 22 19 20 24 26 24 24 24 23 22 22 21 20 19 17 17 16 13 10 9 8 6 5 4 1 0 2 1 1 1 3 3 4 5 4 5 6 7 7 8 8 8 8 8 8 7 7 7
4 5 4 3 3 2 1 1 1 1 3 3 4 7 2 4 6 8 9 10 10 13 17 22 25 26 28 29 32 35 35 36 36 37 38 38 38 39 38 37 35 33 33 33 31 29 29 28 26 24 21 19 22 26 26 26 25 23 23 23 22 21 21 19 19 17 14 11 11 9 5 5 4 2 2 3 2 1 0 1 3 4 4 4 5 6 7 7 8 8 8 8 8 8 7 7 7
3 3 4 3 3 3 2 3 2 2 2 2 3 4 2 1 3 6 8 9 12 15 18 23 28 30 31 31 31 34 35 36 37 37 38 38 39 39 39 38 36 33 33 33 32 31 30 30 28 26 24 21 21 25 27 27 26 24 24 24 24 23 22 20 19 18 15 12 12 10 7 5 4 3 3 3 3 1 1 1 2 3 4 5 6 7 7 7 7 7 8 8 8 7 7 7 7
1 1 3 1 3 4 2 2 3 3 0 0 2 2 3 3 4 5 1 4 9 12 15 18 21 25 27 29 30 32 35 36 37 37 38 39 39 39 40 39 37 34 33 34 33 32 32 32 30 28 26 23 21 23 25 26 26 25 25 26 26 26 23 21 20 19 16 14 13 12 9 6 5 5 5 4 3 1 1 2 2 3 4 5 6 7 6 6 6 6 6 6 7 7 7 7 8
1 1 1 3 3 6 3 1 1 3 3 0 1 2 4 2 3 6 5 4 3 6 9 12 16 20 23 27 29 31 33 35 37 38 39 39 39 40 40 39 38 36 35 35 35 34 33 33 32 30 27 24 22 22 23 24 25 24 24 27 28 27 25 22 20 20 18 15 14 14 11 9 8 7 7 6 4 3 2 3 3 3 4 5 6 7 6 6 6 7 7 7 7 8 8 8 9
4 1 4 2 2 4 3 1 3 4 2 2 2 2 4 3 2 5 5 4 3 3 4 6 12 19 22 26 30 33 35 37 38 39 39 39 39 40 40 40 39 38 37 36 35 34 33 33 32 30 28 26 24 23 22 23 25 25 24 27 29 28 26 23 21 21 19 17 16 16 15 13 11 10 9 8 7 6 5 5 5 4 4 6 6 7 7 7 7 8 8 8 8 8 9 9 10
3 3 5 3 3 1 1 2 1 2 1 3 4 3 2 0 1 4 3 1 3 2 2 3 7 14 19 23 30 33 35 37 37 38 39 39 39 40 40 41 40 39 37 35 34 34 34 34 33 32 29 27 25 23 23 24 26 26 25 27 28 29 28 24 22 22 21 20 19 18 17 16 14 13 13 11 10 8 8 8 7 6 6 6 6 6 6 7 8 8 9 9 9 9 9 9 10
2 1 1 1 3 3 1 1 2 2 2 1 3 3 1 3 4 4 4 6 5 3 1 3 6 12 16 18 24 29 32 35 38 38 39 40 40 40 40 40 41 40 38 36 35 35 35 35 34 33 31 28 26 25 24 25 25 26 26 27 27 29 29 27 25 24 24 24 22 19 18 18 17 16 15 13 12 10 10 10 9 8 7 7 6 5 5 6 7 8 10 10 10 10 10 10 10
1 2 1 2 1 1 1 1 1 2 3 2 1 2 3 5 3 4 6 7 5 3 4 4 6 13 17 17 22 27 29 32 35 38 39 40 39 40 40 40 40 40 39 38 36 35 35 35 35 34 32 30 29 27 27 26 25 26 27 28 28 28 28 28 28 27 26 26 23 20 18 18 18 18 17 16 15 13 11 11 11 10 9 8 7 5 5 6 6 8 9 10 10 10 10 10 11
4 3 3 3 2 2 3 1 3 1 3 3 3 1 5 5 3 3 6 5 3 4 6 4 5 10 14 17 21 25 27 30 33 36 38 39 39 39 40 41 41 41 40 39 38 37 36 36 36 35 34 32 30 29 29 28 26 26 27 28 29 29 27 28 30 29 28 26 24 22 20 18 18 19 19 19 18 14 13 13 12 11 10 9 8 7 7 7 7 7 7 7 8 8 9 10 11
Wind_Direction
221 214 212 213 206 198 213 194 148 283 146 255 231 195 259 225 200 158 136 117 69 13 72 94 104 110 110 108 109 90 55 46 175 135 148 149 155 167 170 170 166 169 173 166 159 154 156 147 139 134 130 129 124 122 118 117 120 116 111 109 106 102 96 94 90 86 86 85 86 87 86 87 86 86 86 85 84 83 83 84 85 84 82 80 78 77 76 75 76 77 77 77 77 84 90 89 89
216 192 202 202 195 194 210 188 152 293 122 276 244 186 251 234 164 161 140 110 107 103 90 90 89 91 100 103 95 76 48 35 125 115 121 142 153 163 165 164 162 163 165 161 156 154 153 144 140 136 133 129 124 119 115 115 114 111 108 108 105 102 99 96 93 91 90 88 87 86 86 85 85 86 87 87 85 85 85 84 85 85 84 82 80 78 78 77 77 77 77 76 75 80 87 88 89
210 182 192 188 185 196 203 167 176 141 159 239 255 229 228 189 158 148 125 118 125 116 95 88 78 78 99 87 59 75 82 92 116 118 124 146 152 154 160 159 157 160 161 158 155 154 154 146 140 138 136 130 124 118 115 115 111 110 108 108 107 104 101 97 97 96 93 91 89 87 86 86 87 88 88 89 87 87 86 86 85 86 86 83 82 81 79 78 78 78 79 79 79 81 85 87 88
199 175 185 179 168 190 171 153 180 141 179 219 254 255 189 169 146 126 129 130 133 123 106 97 67 59 93 92 77 91 116 123 124 127 136 152 152 152 160 159 158 160 159 155 153 155 153 144 140 141 137 131 127 119 115 115 112 111 110 110 109 107 104 102 101 99 95 93 91 89 89 90 90 90 90 90 89 88 86 86 86 86 86 85 83 82 81 79 78 80 80 81 82 84 86 88 88
186 171 176 173 155 163 181 183 158 151 213 195 214 268 165 148 135 129 134 133 131 123 116 111 90 83 84 88 94 100 128 135 136 138 144 154 155 155 158 160 159 159 159 153 153 156 153 145 144 143 136 132 128 121 116 114 112 110 110 111 110 110 107 106 103 99 97 94 94 93 93 94 93 92 91 90 89 87 86 86 86 86 86 85 84 81 80 78 78 81 83 84 85 87 88 88 88
175 166 169 177 195 272 216 198 172 193 225 172 170 236 160 139 127 121 115 113 111 116 119 112 114 108 81 75 99 121 136 138 145 146 147 152 155 156 157 160 158 158 161 155 154 156 153 149 145 141 136 133 128 121 117 113 112 111 112 113 113 111 108 105 102 99 98 97 96 95 96 96 94 93 92 90 89 87 87 85 85 87 87 86 85 81 77 76 77 80 83 85 87 90 91 87 87
171 161 162 180 248 248 170 198 207 214 242 202 183 193 156 129 119 115 105 103 97 104 114 115 116 104 85 102 107 124 143 147 146 147 150 150 153 154 157 162 160 161 160 156 153 153 151 148 144 141 139 136 130 123 119 117 115 116 116 115 114 110 107 104 101 101 100 99 98 97 97 96 95 92 91 90 89 89 88 87 86 86 88 88 87 83 78 76 76 80 84 87 91 93 93 87 86
170 163 162 163 286 220 170 221 224 181 254 232 179 182 155 137 125 117 113 115 105 109 115 119 115 95 90 132 112 130 147 154 147 148 152 149 152 154 160 164 165 165 159 156 152 151 151 147 145 143 144 140 134 128 124 123 122 121 119 117 113 110 108 105 103 103 102 101 99 98 96 95 93 91 90 89 89 91 91 89 87 85 88 90 89 87 84 81 76 78 85 89 95 96 94 89 86
170 168 157 162 222 216 216 234 206 176 256 241 160 173 149 134 122 114 108 100 111 119 125 131 114 100 122 119 113 136 145 154 147 147 150 148 153 156 163 164 168 167 157 157 152 149 147 147 148 146 146 140 136 132 129 128 126 124 120 118 115 112 110 106 105 103 102 100 98 96 94 93 91 90 88 88 89 90 92 92 92 89 88 90 91 90 88 86 80 79 84 90 96 98 96 92 90
172 176 151 179 201 189 229 236 151 217 239 219 148 149 135 123 115 114 113 110 120 110 121 134 114 117 127 115 119 140 147 154 150 147 150 153 157 158 160 161 169 167 158 157 151 147 145 148 150 147 145 139 138 135 133 131 127 124 121 119 117 114 108 104 102 99 99 96 94 92 89 88 87 88 87 87 88 89 91 92 95 95 93 94 94 92 91 89 86 84 87 92 97 97 95 95 94
170 182 163 192 189 185 221 179 155 229 212 184 120 106 109 114 107 107 113 116 124 116 122 116 106 120 120 115 130 144 152 157 156 151 153 157 158 157 157 160 166 165 160 158 152 150 148 149 149 146 144 139 138 135 133 130 126 124 121 119 114 110 104 100 96 92 90 87 85 83 80 80 77 79 81 83 85 87 90 92 95 98 100 100 99 97 94 91 89 90 92 94 96 96 95 94 93
181 165 146 154 199 201 196 137 179 212 109 118 71 80 112 117 109 117 120 124 132 127 134 125 128 128 110 117 141 151 155 156 159 152 155 159 158 158 160 161 162 164 162 159 155 154 151 149 147 144 141 137 138 135 132 128 126 125 121 116 111 108 104 100 95 89 86 81 77 74 73 72 69 68 70 73 77 84 86 89 94 98 104 105 106 104 101 99 94 95 98 97 96 97 93 88 90
204 148 143 187 211 190 147 145 191 157 120 168 134 140 148 130 128 140 128 131 139 131 151 144 141 126 106 142 147 157 158 159 162 154 157 159 160 162 163 161 161 164 161 161 159 155 151 149 147 143 140 139 139 135 132 129 126 124 118 113 109 107 103 100 94 87 82 78 75 72 75 74 73 68 66 69 66 78 84 85 90 93 102 106 112 112 110 108 102 101 103 104 101 99 92 85 92
198 160 153 227 237 188 121 162 210 133 198 184 158 165 157 134 136 133 121 112 81 122 138 142 140 117 119 142 150 164 161 163 164 160 163 161 163 164 164 161 160 161 158 161 161 157 152 149 147 143 143 142 140 134 129 124 120 117 112 108 105 103 101 97 89 83 80 73 69 68 72 79 84 73 61 64 62 69 83 84 85 89 97 105 119 123 121 117 111 108 110 114 111 104 98 93 98
195 177 156 244 272 172 105 189 211 158 210 201 163 157 128 105 131 120 113 105 76 126 132 141 142 118 150 157 165 170 164 164 165 164 166 165 166 164 163 160 159 160 157 161 160 159 155 151 148 143 144 142 136 129 120 114 110 107 104 103 102 103 99 93 86 79 75 67 62 54 43 44 62 55 36 43 63 69 83 88 85 89 100 112 128 135 131 124 118 114 119 124 120 112 107 106 108
197 189 134 254 270 82 301 216 181 170 217 173 148 134 100 80 120 102 111 125 121 135 134 146 159 151 165 167 168 168 163 163 164 164 167 167 166 162 163 162 161 162 160 163 161 160 157 154 149 142 141 135 129 121 114 111 105 99 92 92 99 102 96 88 85 76 69 60 53 39 25 21 19 8 9 33 77 84 89 93 94 97 106 123 138 143 137 130 124 119 124 130 123 117 112 114 118
191 196 217 248 247 97 248 225 182 172 168 162 159 130 109 78 103 98 117 126 123 135 133 145 190 163 163 169 165 163 159 161 162 164 168 167 165 163 164 165 164 164 163 166 163 160 158 155 150 142 136 127 123 116 112 108 99 93 90 96 101 98 95 89 87 81 69 58 49 31 17 11 353 332 343 45 101 102 102 105 105 102 101 113 131 142 141 136 133 127 129 134 128 117 113 119 125
180 183 207 236 232 157 215 222 189 161 154 171 180 135 125 131 112 112 114 108 107 108 109 123 145 152 159 162 158 158 156 159 163 166 169 166 166 165 165 166 165 166 166 167 165 161 158 154 149 139 131 122 120 115 109 106 100 96 97 105 107 104 100 89 89 84 72 68 61 42 17 352 335 321 321 44 116 108 114 118 113 107 102 107 122 140 147 142 137 134 136 138 134 123 121 128 130
181 149 190 223 202 208 241 218 181 161 157 150 156 137 127 134 128 123 117 96 102 98 96 112 119 132 145 151 154 157 157 161 165 169 170 167 168 167 166 167 167 170 169 169 167 163 159 152 143 135 127 121 120 116 111 110 106 104 107 114 118 118 108 97 103 101 102 104 96 74 11 343 330 312 307 193 129 115 123 130 122 115 112 110 119 135 146 147 134 131 140 143 138 132 133 139 137
198 187 196 233 214 249 277 232 180 160 148 131 130 131 121 126 126 122 121 108 104 111 123 119 121 133 142 150 155 156 159 164 167 172 173 169 169 168 169 170 171 174 170 168 165 161 158 149 139 132 126 122 121 120 119 117 110 111 121 130 137 135 119 120 130 133 145 173 159 150 276 270 295 290 239 148 135 127 131 138 136 128 123 115 112 127 143 150 140 132 142 147 142 136 137 147 148
204 186 205 233 225 255 275 219 156 146 137 128 127 121 111 121 127 128 124 104 78 140 148 144 142 144 149 154 157 159 164 167 169 175 174 170 170 170 172 172 174 175 169 167 164 159 153 145 137 133 128 125 124 124 125 122 118 122 131 140 148 146 140 146 159 182 209 243 220 215 227 234 275 210 154 149 141 140 139 143 146 141 132 124 114 118 136 146 144 137 143 150 147 141 142 155 160
264 216 232 263 267 251 245 130 117 120 123 122 123 116 113 114 115 129 128 119 171 166 157 154 152 153 156 159 160 164 167 168 170 174 174 174 171 170 172 170 173 174 171 169 165 159 149 141 137 134 130 127 129 128 126 127 128 126 123 134 146 148 157 169 185 213 228 242 233 219 199 215 273 150 154 163 158 149 149 149 153 151 141 135 126 120 132 139 144 147 147 150 150 148 147 159 173
287 269 320 314 292 237 173 148 125 127 125 120 121 120 116 105 91 110 110 128 162 159 156 156 156 157 159 160 162 165 168 170 170 172 175 176 171 170 172 171 174 173 172 171 166 159 147 140 138 137 134 133 138 136 131 132 136 130 122 131 150 160 173 192 200 212 234 237 224 211 198 207 229 214 185 174 174 167 158 156 155 157 153 147 138 130 135 135 140 155 159 157 155 156 157 168 185
177 319 330 308 299 210 167 159 137 135 129 117 117 117 110 104 99 88 85 125 149 150 154 155 155 156 158 160 162 165 169 169 168 172 178 179 174 173 175 174 174 173 172 171 166 158 147 141 142 146 146 147 148 144 143 150 163 172 171 179 187 191 202 219 228 247 271 260 229 210 207 223 237 250 258 193 185 185 170 164 161 162 159 154 150 144 141 134 136 155 163 165 163 162 165 177 190
120 346 321 301 317 85 161 147 131 130 120 115 109 103 100 104 107 81 84 133 144 147 151 153 153 155 160 162 163 165 168 169 170 176 182 184 180 176 177 177 176 176 172 169 163 156 151 147 148 155 159 161 161 160 168 179 196 206 215 224 215 216 225 240 264 284 297 279 243 222 217 229 242 248 262 238 193 193 186 174 168 165 161 158 158 157 147 129 127 150 160 164 167 167 168 180 184
142 70 5 324 358 52 110 118 123 122 116 118 104 90 108 105 101 76 104 139 144 148 149 153 155 158 162 164 166 167 169 171 173 179 182 184 183 182 180 180 182 179 173 168 162 157 155 153 152 158 164 171 174 180 194 200 209 211 219 226 222 228 237 277 305 310 318 314 286 244 229 233 245 250 250 242 197 194 196 185 178 169 164 165 165 165 156 129 116 136 157 162 166 171 179 185 181
120 86 43 31 47 54 59 36 91 111 112 119 113 108 118 104 100 99 134 143 147 148 148 156 157 160 165 165 170 171 175 177 178 181 181 181 184 185 181 180 183 178 174 169 162 157 157 157 157 161 166 174 181 189 197 201 208 206 209 211 215 233 258 302 312 318 329 347 1 320 236 228 235 241 228 228 203 193 201 194 189 175 164 168 169 169 163 140 119 122 148 160 163 172 183 183 181
126 99 49 24 47 62 61 12 6 80 102 119 118 111 87 68 98 144 151 148 152 150 150 158 159 162 166 167 174 177 181 183 184 185 184 185 186 187 184 180 179 177 175 169 162 160 161 163 165 169 178 181 185 193 194 199 200 195 201 202 209 228 237 275 335 340 350 12 11 15 319 212 216 224 209 217 205 190 200 192 188 181 169 169 170 171 165 150 132 119 131 155 162 170 178 177 179
108 94 70 7 18 58 73 44 354 34 104 124 115 83 14 33 126 150 151 151 154 151 153 160 160 165 168 171 177 180 184 185 186 187 188 188 188 190 188 183 181 179 175 170 166 167 168 170 174 180 188 194 198 202 207 201 186 180 192 198 195 185 180 202 18 7 12 18 7 11 7 197 202 217 209 211 200 187 194 186 179 177 173 173 170 172 168 156 147 130 124 141 158 166 170 171 175
76 62 88 6 15 55 59 106 96 86 141 144 117 82 288 343 147 153 152 154 153 150 155 161 162 167 170 175 180 182 186 187 188 188 190 190 190 194 191 186 184 180 177 174 172 174 175 177 183 190 193 202 208 212 223 201 181 172 172 177 174 165 170 219 11 21 7 6 2 4 1 201 198 216 213 207 196 180 181 181 172 170 174 177 174 176 174 163 157 150 136 136 148 157 160 160 165
43 24 66 5 39 117 327 344 9 86 168 165 111 123 246 228 159 158 157 159 155 151 157 162 165 168 172 178 181 184 187 190 192 190 190 191 191 193 190 184 181 180 179 178 178 179 181 183 191 197 198 206 208 212 217 192 186 180 168 167 167 171 187 206 208 295 343 354 351 354 354 213 197 213 214 206 192 172 168 172 169 170 174 177 178 181 182 175 169 166 158 149 147 150 150 151 155
38 28 48 348 49 274 320 348 346 310 211 160 101 121 246 184 174 166 162 164 158 154 159 163 166 168 174 179 182 186 189 191 193 189 189 191 192 192 187 181 178 180 182 181 183 185 186 189 196 200 200 205 207 204 194 185 186 178 163 158 155 165 191 208 226 300 340 351 346 347 349 214 200 206 217 210 176 167 163 166 166 171 175 176 176 180 184 184 181 178 174 169 161 156 149 141 142
25 71 72 317 17 4 329 348 332 317 304 300 105 138 210 171 182 173 165 165 159 156 164 168 169 171 175 179 183 187 188 190 191 190 190 190 192 193 187 182 180 182 185 186 188 189 190 193 198 203 206 210 212 200 189 186 180 169 162 164 170 178 196 207 212 316 344 345 339 339 356 181 207 203 218 217 168 164 162 165 168 171 175 173 170 172 178 181 182 182 178 178 179 174 164 147 137
10 46 65 302 346 44 303 307 310 320 277 244 112 128 192 167 173 176 171 168 164 163 169 174 175 175 177 180 183 185 187 189 190 191 192 191 191 191 188 183 182 185 187 189 191 190 192 197 203 210 215 216 210 196 186 180 169 164 166 179 193 196 192 200 202 323 335 337 331 325 36 81 217 202 210 216 173 165 163 168 173 176 176 173 170 168 172 176 177 182 180 177 183 185 181 169 152
120 99 83 314 321 287 228 275 320 344 296 261 149 143 185 157 167 180 181 174 171 172 175 177 178 179 180 181 183 185 187 190 193 193 192 192 189 188 187 182 181 184 187 189 190 191 195 202 209 215 219 213 200 188 181 173 166 164 167 177 186 185 187 198 209 264 303 324 325 313 42 67 140 204 199 205 178 167 166 171 176 179 178 175 173 168 169 175 175 181 184 182 186 190 190 186 175
143 144 148 174 206 248 204 153 309 307 279 270 224 176 165 161 172 187 188 182 179 180 180 179 180 182 182 182 185 187 188 190 193 193 192 193 191 188 186 182 182 185 188 190 190 196 202 207 212 214 214 202 189 183 179 174 171 174 172 175 182 183 192 203 220 264 293 321 327 313 347 68 80 177 183 191 177 165 167 173 176 178 177 175 175 171 168 173 174 179 186 190 195 196 194 197 196
123 118 125 212 270 294 314 125 184 295 267 251 233 170 177 176 183 189 187 186 186 183 181 180 180 183 184 183 185 187 190 191 190 192 194 195 192 188 186 183 184 186 188 192 196 201 206 212 216 214 208 194 186 181 181 182 183 182 175 172 179 182 193 204 222 281 304 323 325 304 298 62 84 138 155 178 177 165 168 177 177 176 177 177 177 176 172 174 175 179 184 189 195 193 189 193 198
124 132 151 314 345 263 287 111 115 10 316 276 16 118 192 192 190 186 181 185 195 190 183 183 183 185 186 187 188 188 189 187 186 190 191 193 192 187 187 186 186 188 190 196 202 205 209 215 217 216 205 192 188 183 185 193 194 180 174 174 181 189 202 210 223 268 297 321 323 296 289 57 97 133 158 167 174 170 172 181 180 173 172 176 178 179 179 178 178 180 183 183 185 184 181 180 182
141 144 132 131 316 268 280 54 74 64 68 295 350 40 215 215 197 189 185 189 200 197 189 187 186 186 187 188 189 187 184 182 184 188 190 193 191 187 188 188 189 193 195 199 204 207 210 213 213 216 202 191 191 188 190 199 187 173 175 183 190 199 203 204 208 198 235 343 336 303 301 39 118 145 170 164 170 175 173 181 183 175 169 171 178 183 184 185 186 185 187 186 183 182 178 177 180
127 121 106 161 277 301 262 333 9 61 138 230 342 349 279 260 208 206 202 197 201 200 196 193 192 191 191 191 191 186 183 183 184 188 190 192 191 189 191 191 193 197 198 200 204 207 211 212 212 214 199 190 191 191 193 193 176 173 180 188 197 204 198 194 183 174 193 16 3 322 303 316 110 138 164 160 167 175 171 177 184 181 173 171 178 186 189 191 194 193 193 193 191 189 186 184 187
75 110 107 173 202 172 213 272 329 359 40 341 9 339 300 251 199 211 210 204 208 205 199 197 197 199 196 193 192 190 189 188 187 188 190 192 192 191 193 194 196 198 200 202 205 209 212 212 212 214 201 191 188 190 195 189 177 178 185 189 196 200 193 190 180 184 218 28 12 343 296 282 164 157 167 158 165 174 173 171 177 184 179 175 180 188 193 195 198 200 200 199 198 199 197 195 195
27 99 151 205 226 212 177 87 37 32 14 334 42 324 289 275 216 202 195 200 214 210 203 200 198 199 195 190 189 190 191 191 190 190 191 193 192 191 194 196 197 199 202 204 208 212 214 214 215 219 203 187 179 180 187 185 179 181 188 192 194 194 192 192 195 213 242 15 2 354 321 253 187 171 169 157 163 175 177 172 171 181 182 182 185 191 196 199 201 203 205 204 202 202 201 202 202
23 258 209 203 208 205 138 77 63 90 235 256 171 178 265 304 266 206 182 190 209 209 206 206 203 196 189 187 187 188 188 189 191 191 191 193 192 191 194 196 199 201 203 207 211 213 214 216 220 223 202 185 176 174 179 182 184 186 192 197 197 197 196 194 200 217 227 259 353 7 1 253 185 188 174 165 171 178 187 184 176 177 181 186 190 195 200 202 205 207 210 209 206 206 204 204 206
202 235 181 175 178 177 148 103 101 172 239 278 115 119 305 302 272 214 176 185 208 212 208 209 206 197 187 186 187 187 187 188 189 190 191 193 193 194 195 197 201 204 205 209 210 211 213 218 222 222 203 189 181 180 184 188 193 195 197 202 204 205 206 200 197 204 218 233 268 352 20 69 95 212 185 178 182 185 192 193 188 181 178 181 187 197 204 207 210 214 215 212 208 206 206 207 211
213 192 137 153 157 153 150 126 132 51 34 307 288 111 99 278 276 232 170 185 208 214 211 205 200 193 186 185 186 188 189 190 190 191 192 195 196 197 198 199 202 205 207 209 211 212 214 220 221 217 205 193 186 188 196 197 199 202 203 205 209 211 208 200 200 211 222 230 248 262 29 69 65 137 196 195 195 195 192 189 191 186 178 178 181 187 194 198 205 210 211 212 214 211 209 214 217
145 121 101 99 94 99 107 106 112 60 55 265 222 151 163 272 273 210 164 196 212 212 209 202 200 192 184 184 186 188 190 190 192 194 195 198 200 200 201 201 203 206 208 209 213 215 217 221 217 214 209 194 187 194 202 199 199 204 207 209 214 213 203 197 206 216 222 232 247 240 210 77 70 70 195 210 210 216 201 186 182 180 181 182 181 185 188 188 192 198 201 208 214 213 211 215 215
116 103 93 89 63 73 80 64 78 62 355 261 210 170 162 300 275 202 180 213 204 194 195 199 203 195 185 185 187 188 189 190 192 195 197 200 201 200 201 203 203 205 208 210 213 217 219 220 216 216 213 196 192 197 201 197 201 210 212 211 216 212 200 200 210 214 222 236 245 231 221 229 83 70 24 243 218 213 203 197 187 177 181 185 185 187 189 191 192 193 197 200 204 206 205 206 204
122 110 122 114 39 3 47 29 40 70 270 270 209 164 155 210 269 234 218 233 187 176 189 192 197 197 189 186 188 189 190 190 192 194 195 197 198 198 201 203 203 204 207 210 213 218 219 218 216 217 213 200 198 200 202 203 208 216 215 214 217 211 201 206 213 217 227 236 237 229 227 234 217 103 36 298 226 192 188 203 211 194 187 188 191 191 190 196 197 198 201 200 199 202 204 206 205
127 112 122 96 37 7 22 6 6 177 250 278 142 141 157 225 253 255 240 234 192 181 190 189 190 194 190 186 188 189 189 190 192 193 194 196 198 199 201 203 204 205 208 211 213 217 218 217 217 219 215 206 203 203 205 210 215 219 217 218 220 211 203 211 220 225 228 229 231 229 223 222 217 150 312 301 286 201 178 197 219 224 207 196 198 198 195 198 201 202 203 202 203 202 204 210 211
157 139 134 107 95 73 343 259 294 246 265 307 122 148 211 276 265 257 238 222 201 190 191 189 189 193 194 190 187 188 189 191 193 193 194 197 200 201 201 203 206 208 210 212 215 216 217 217 218 221 219 211 207 206 207 212 217 220 218 220 221 210 204 213 224 228 224 222 231 234 226 216 221 246 265 281 295 310 18 215 222 232 221 206 206 208 203 201 202 201 200 199 202 203 203 206 211
172 167 133 130 145 143 182 199 200 225 270 346 100 157 214 253 273 261 235 215 195 189 191 189 189 194 196 191 186 187 189 191 194 195 196 199 203 203 203 204 207 210 212 213 216 217 217 219 220 222 219 214 212 209 210 213 216 219 219 222 222 210 205 212 223 227 222 219 228 233 232 227 232 257 257 259 274 288 346 290 239 238 232 213 209 212 207 203 201 200 202 202 200 203 207 206 211
274 131 103 148 185 146 145 181 172 171 102 49 164 212 224 212 287 316 319 176 179 181 183 181 186 191 190 185 184 186 188 191 194 196 198 202 204 205 205 206 208 210 212 214 216 218 219 221 223 223 221 219 218 213 213 215 216 220 221 221 220 211 206 212 220 225 223 221 227 233 240 244 238 252 259 246 244 262 296 282 261 248 239 224 214 214 210 206 206 206 210 214 210 211 214 214 217
3 74 155 241 185 126 107 320 17 81 84 227 218 291 302 320 337 346 33 83 151 175 174 181 187 183 179 181 184 187 189 191 195 199 201 202 204 206 206 207 209 211 212 215 218 221 223 224 223 223 220 220 222 219 217 215 215 221 220 215 214 210 208 213 218 222 222 222 228 232 240 247 244 252 262 250 234 245 268 266 260 249 245 237 221 218 219 213 216 220 218 221 222 221 222 221 224
112 194 200 215 43 73 94 87 4 35 80 293 331 326 314 2 6 327 9 77 145 166 157 180 187 179 178 183 186 190 193 194 198 202 203 204 205 207 208 210 212 213 214 216 219 223 225 226 226 224 221 222 225 224 221 217 216 220 217 211 210 209 210 215 218 220 223 226 229 233 237 241 245 252 262 261 250 248 257 260 257 251 250 244 226 221 225 219 221 228 225 223 226 229 230 229 230
145 188 173 132 67 30 16 102 34 24 71 299 321 336 319 326 255 298 329 204 207 203 88 109 167 178 183 187 188 192 195 195 198 201 203 205 207 209 210 211 213 215 216 218 220 222 224 225 226 226 226 230 232 229 224 221 219 220 216 211 212 212 212 216 219 220 223 228 231 236 239 238 242 251 258 264 259 251 253 255 255 253 251 247 233 224 228 228 227 233 233 229 228 233 236 236 238
323 44 124 65 120 155 177 112 149 142 131 254 321 3 328 244 240 241 252 252 243 231 129 110 145 166 177 187 192 194 194 194 197 201 204 206 208 210 211 212 214 215 217 218 219 221 223 224 224 224 227 231 233 230 226 222 222 222 220 216 216 217 216 218 220 220 222 225 229 235 238 235 237 246 253 260 261 254 253 255 252 250 248 247 241 226 227 234 232 234 235 231 230 233 236 239 244
355 308 301 341 34 110 90 61 131 119 127 183 81 29 283 258 235 219 240 252 243 205 184 172 160 162 172 187 195 197 198 198 198 202 206 208 210 212 213 214 214 214 215 217 218 221 223 223 223 224 226 228 229 228 226 224 223 223 222 220 218 220 221 221 222 222 221 222 225 230 234 232 233 241 248 257 261 256 252 255 251 246 245 244 240 226 218 223 223 225 227 228 230 234 237 241 246
157 217 214 164 119 95 90 354 315 80 124 167 134 111 274 267 257 246 242 244 233 182 179 187 168 166 184 197 197 199 202 203 204 206 208 211 212 213 213 212 211 212 214 216 217 220 222 224 225 226 227 228 228 228 225 225 225 224 223 222 220 221 225 225 224 224 223 221 224 228 231 230 232 238 247 256 261 257 253 253 251 245 243 241 237 227 220 219 217 218 219 222 227 232 237 240 244